• In Uzbekistan
  • List of Countries
  • For 7 days
  • Water Temperature
  • Weather Map
  • Weather Widgets
  • user-avatar
    Login

    Hourly Weather Mianow

    Today, 26 February, Wednesday

    Time Temperature Precipitation Wind Pressure Humidity
    00:00 +5°C° 0 mm 3 mps 733 mmHg 85%
    01:00 +4°C° 0 mm 3 mps 733 mmHg 89%
    02:00 +4°C° 0 mm 3 mps 733 mmHg 89%
    03:00 +4°C° 0 mm 3 mps 732 mmHg 90%
    04:00 +3°C° 0 mm 3 mps 732 mmHg 90%
    05:00 +3°C° 0 mm 3 mps 731 mmHg 91%
    06:00 +3°C° 0 mm 3 mps 731 mmHg 91%
    07:00 +3°C° 0 mm 3 mps 731 mmHg 90%
    08:00 +3°C° 0.1 mm 4 mps 731 mmHg 86%
    09:00 +3°C° 0.1 mm 5 mps 731 mmHg 82%
    10:00 +4°C° 0.1 mm 6 mps 731 mmHg 78%
    11:00 +5°C° 0 mm 5 mps 731 mmHg 74%
    12:00 +5°C° 0 mm 5 mps 731 mmHg 69%
    13:00 +6°C° 0 mm 5 mps 731 mmHg 64%
    14:00 +5°C° 0.2 mm 5 mps 731 mmHg 69%
    15:00 +3°C° 0.2 mm 5 mps 731 mmHg 75%
    16:00 +3°C° 0.2 mm 6 mps 731 mmHg 80%
    17:00 +2°C° 0.5 mm 6 mps 732 mmHg 81%
    18:00 +1°C° 0.5 mm 6 mps 732 mmHg 83%
    19:00 -1°C° 0.5 mm 6 mps 732 mmHg 84%
    20:00 0°C° 0.6 mm 5 mps 733 mmHg 87%
    21:00 0°C° 0.6 mm 5 mps 733 mmHg 91%
    22:00 -1°C° 0.6 mm 5 mps 733 mmHg 94%
    23:00 0°C° 0.3 mm 5 mps 734 mmHg 92%

    Tomorrow, 27 February, Thursday

    Time Temperature Precipitation Wind Pressure Humidity
    00:00 0°C° 0.3 mm 5 mps 734 mmHg 91%
    01:00 0°C° 0.3 mm 5 mps 735 mmHg 90%
    02:00 0°C° 0 mm 5 mps 735 mmHg 89%
    03:00 -1°C° 0 mm 6 mps 735 mmHg 89%
    04:00 -1°C° 0 mm 6 mps 735 mmHg 88%
    05:00 -2°C° 0 mm 6 mps 736 mmHg 88%
    06:00 -2°C° 0 mm 6 mps 736 mmHg 87%
    07:00 -3°C° 0 mm 6 mps 737 mmHg 86%
    08:00 -3°C° 0 mm 6 mps 737 mmHg 83%
    09:00 -2°C° 0 mm 6 mps 738 mmHg 79%
    10:00 -2°C° 0 mm 6 mps 738 mmHg 76%
    11:00 -1°C° 0 mm 6 mps 738 mmHg 73%
    12:00 -1°C° 0 mm 6 mps 738 mmHg 71%
    13:00 -1°C° 0 mm 6 mps 738 mmHg 68%
    14:00 +1°C° 0 mm 6 mps 738 mmHg 72%
    15:00 +1°C° 0 mm 5 mps 738 mmHg 75%
    16:00 +1°C° 0 mm 5 mps 737 mmHg 78%
    17:00 0°C° 0 mm 4 mps 737 mmHg 82%
    18:00 0°C° 0 mm 3 mps 737 mmHg 86%
    19:00 +1°C° 0 mm 2 mps 737 mmHg 89%
    20:00 +1°C° 0 mm 2 mps 736 mmHg 88%
    21:00 +1°C° 0 mm 2 mps 736 mmHg 86%
    22:00 +1°C° 0 mm 2 mps 736 mmHg 85%
    23:00 0°C° 0 mm 3 mps 735 mmHg 83%

    Day after tomorrow, 28 February, Friday

    Time Temperature Precipitation Wind Pressure Humidity
    00:00 0°C° 0 mm 3 mps 735 mmHg 82%
    01:00 0°C° 0 mm 3 mps 734 mmHg 81%
    02:00 0°C° 0.1 mm 3 mps 734 mmHg 83%
    03:00 +1°C° 0.1 mm 2 mps 734 mmHg 85%
    04:00 +1°C° 0.1 mm 2 mps 734 mmHg 87%
    05:00 +1°C° 0.5 mm 2 mps 734 mmHg 90%
    06:00 -1°C° 0.5 mm 3 mps 735 mmHg 93%
    07:00 -1°C° 0.5 mm 3 mps 736 mmHg 96%
    08:00 0°C° 0.2 mm 3 mps 737 mmHg 96%
    09:00 0°C° 0.2 mm 3 mps 738 mmHg 96%
    10:00 -1°C° 0.2 mm 4 mps 739 mmHg 96%
    11:00 -1°C° 0.1 mm 5 mps 740 mmHg 92%
    12:00 0°C° 0.1 mm 5 mps 741 mmHg 89%
    13:00 -1°C° 0.1 mm 6 mps 742 mmHg 85%
    14:00 +1°C° 0.1 mm 6 mps 743 mmHg 81%
    15:00 +1°C° 0.1 mm 6 mps 743 mmHg 77%
    16:00 +1°C° 0.1 mm 6 mps 744 mmHg 73%
    17:00 +1°C° 0 mm 5 mps 744 mmHg 76%
    18:00 0°C° 0 mm 5 mps 744 mmHg 78%
    19:00 -1°C° 0 mm 4 mps 745 mmHg 81%
    20:00 -1°C° 0 mm 4 mps 745 mmHg 83%
    21:00 -1°C° 0 mm 4 mps 745 mmHg 86%
    22:00 -1°C° 0 mm 5 mps 745 mmHg 88%
    23:00 -2°C° 0 mm 5 mps 746 mmHg 90%

    29 February, Saturday

    Time Temperature Precipitation Wind Pressure Humidity
    00:00 -2°C° 0 mm 5 mps 746 mmHg 91%
    01:00 -2°C° 0 mm 5 mps 746 mmHg 92%
    02:00 -2°C° 0 mm 5 mps 746 mmHg 91%
    03:00 -2°C° 0 mm 4 mps 746 mmHg 91%
    04:00 -3°C° 0 mm 4 mps 745 mmHg 90%
    05:00 -3°C° 0 mm 4 mps 745 mmHg 89%
    06:00 -1°C° 0 mm 3 mps 745 mmHg 88%
    07:00 -1°C° 0 mm 3 mps 745 mmHg 86%
    08:00 0°C° 0 mm 3 mps 745 mmHg 81%
    09:00 0°C° 0 mm 4 mps 745 mmHg 75%
    10:00 +1°C° 0 mm 4 mps 744 mmHg 69%
    11:00 +3°C° 0 mm 4 mps 744 mmHg 65%
    12:00 +3°C° 0 mm 5 mps 743 mmHg 61%
    13:00 +5°C° 0 mm 5 mps 742 mmHg 57%
    14:00 +5°C° 0 mm 5 mps 742 mmHg 59%
    15:00 +5°C° 0 mm 5 mps 741 mmHg 61%
    16:00 +5°C° 0 mm 5 mps 741 mmHg 64%
    17:00 +3°C° 0 mm 6 mps 740 mmHg 65%
    18:00 +3°C° 0 mm 6 mps 740 mmHg 67%
    19:00 +3°C° 0 mm 6 mps 739 mmHg 68%
    20:00 +2°C° 0 mm 6 mps 739 mmHg 69%
    21:00 +2°C° 0 mm 6 mps 739 mmHg 70%
    22:00 +2°C° 0 mm 6 mps 739 mmHg 71%
    23:00 +2°C° 0 mm 6 mps 738 mmHg 72%

    1 March, Sunday

    Time Temperature Precipitation Wind Pressure Humidity
    00:00 +3°C° 0 mm 6 mps 738 mmHg 73%
    01:00 +3°C° 0 mm 6 mps 738 mmHg 74%
    02:00 +3°C° 0.4 mm 7 mps 738 mmHg 78%
    03:00 +3°C° 0.4 mm 7 mps 738 mmHg 82%
    04:00 +3°C° 0.4 mm 7 mps 737 mmHg 85%
    05:00 +3°C° 0.7 mm 6 mps 738 mmHg 87%
    06:00 +3°C° 0.7 mm 5 mps 738 mmHg 89%
    07:00 +3°C° 0.7 mm 5 mps 738 mmHg 92%
    08:00 +5°C° 0.1 mm 5 mps 738 mmHg 85%
    09:00 +5°C° 0.1 mm 6 mps 739 mmHg 79%
    10:00 +5°C° 0.1 mm 6 mps 739 mmHg 72%
    11:00 +7°C° 0 mm 6 mps 739 mmHg 68%
    12:00 +7°C° 0 mm 6 mps 739 mmHg 65%
    13:00 +7°C° 0 mm 6 mps 739 mmHg 61%
    14:00 +7°C° 0 mm 6 mps 739 mmHg 60%
    15:00 +7°C° 0 mm 5 mps 739 mmHg 59%
    16:00 +7°C° 0 mm 5 mps 739 mmHg 58%
    17:00 +6°C° 0 mm 4 mps 739 mmHg 62%
    18:00 +5°C° 0 mm 4 mps 739 mmHg 65%
    19:00 +5°C° 0 mm 3 mps 740 mmHg 69%
    20:00 +4°C° 0 mm 3 mps 740 mmHg 70%
    21:00 +4°C° 0 mm 3 mps 740 mmHg 71%
    22:00 +4°C° 0 mm 3 mps 740 mmHg 72%
    23:00 +4°C° 0 mm 3 mps 740 mmHg 76%

    2 March, Monday

    Time Temperature Precipitation Wind Pressure Humidity
    00:00 +3°C° 0 mm 3 mps 740 mmHg 79%
    01:00 +3°C° 0 mm 3 mps 740 mmHg 82%
    02:00 +2°C° 0 mm 3 mps 740 mmHg 84%
    03:00 +2°C° 0 mm 3 mps 740 mmHg 86%
    04:00 +1°C° 0 mm 3 mps 740 mmHg 88%
    05:00 +1°C° 0 mm 3 mps 740 mmHg 88%
    06:00 +1°C° 0 mm 3 mps 740 mmHg 88%
    07:00 +1°C° 0 mm 3 mps 740 mmHg 88%
    08:00 +1°C° 0 mm 4 mps 740 mmHg 81%
    09:00 +4°C° 0 mm 4 mps 741 mmHg 73%
    10:00 +5°C° 0 mm 5 mps 741 mmHg 66%
    11:00 +6°C° 0 mm 5 mps 741 mmHg 62%
    12:00 +7°C° 0 mm 5 mps 741 mmHg 58%
    13:00 +7°C° 0 mm 5 mps 740 mmHg 54%
    14:00 +8°C° 0 mm 4 mps 740 mmHg 54%
    15:00 +8°C° 0 mm 4 mps 740 mmHg 53%
    16:00 +9°C° 0 mm 3 mps 740 mmHg 53%
    17:00 +8°C° 0 mm 3 mps 740 mmHg 58%
    18:00 +7°C° 0 mm 3 mps 740 mmHg 63%
    19:00 +5°C° 0 mm 3 mps 740 mmHg 68%
    20:00 +4°C° 0 mm 3 mps 741 mmHg 69%
    21:00 +4°C° 0 mm 4 mps 741 mmHg 71%
    22:00 +4°C° 0 mm 4 mps 741 mmHg 72%
    23:00 +3°C° 0 mm 4 mps 741 mmHg 73%
    Show more